Stündliche Wetter Warginie

Heute, 21 Oktober, Mittwoch

Zeit Temperatur Niederschläge Wind Luftdruck Luftfeuchtigkeit
00:00 +9°C° 0.2 mm 5 m/S 755 mmHg 84%
01:00 +8°C° 0 mm 5 m/S 755 mmHg 86%
02:00 +8°C° 0 mm 5 m/S 755 mmHg 88%
03:00 +8°C° 0 mm 5 m/S 755 mmHg 90%
04:00 +8°C° 0 mm 5 m/S 755 mmHg 92%
05:00 +9°C° 0.3 mm 5 m/S 755 mmHg 93%
06:00 +9°C° 0.3 mm 5 m/S 755 mmHg 95%
07:00 +10°C° 0.3 mm 4 m/S 755 mmHg 96%
08:00 +10°C° 0.3 mm 5 m/S 755 mmHg 95%
09:00 +10°C° 0.3 mm 5 m/S 755 mmHg 94%
10:00 +10°C° 0.3 mm 6 m/S 755 mmHg 93%
11:00 +10°C° 0.2 mm 5 m/S 755 mmHg 91%
12:00 +12°C° 0.2 mm 5 m/S 755 mmHg 89%
13:00 +12°C° 0.2 mm 5 m/S 755 mmHg 87%
14:00 +12°C° 0.1 mm 5 m/S 754 mmHg 86%
15:00 +10°C° 0.1 mm 5 m/S 754 mmHg 86%
16:00 +10°C° 0.1 mm 5 m/S 754 mmHg 85%
17:00 +10°C° 0.1 mm 6 m/S 754 mmHg 83%
18:00 +10°C° 0.1 mm 6 m/S 754 mmHg 82%
19:00 +10°C° 0.1 mm 7 m/S 754 mmHg 80%
20:00 +10°C° 0.2 mm 7 m/S 753 mmHg 79%
21:00 +11°C° 0.2 mm 7 m/S 753 mmHg 78%
22:00 +11°C° 0.2 mm 7 m/S 753 mmHg 76%
23:00 +11°C° 0 mm 7 m/S 753 mmHg 74%

Morgen, 22 Oktober, Donnerstag

Zeit Temperatur Niederschläge Wind Luftdruck Luftfeuchtigkeit
00:00 +12°C° 0 mm 8 m/S 753 mmHg 72%
01:00 +12°C° 0 mm 9 m/S 753 mmHg 70%
02:00 +12°C° 0 mm 9 m/S 752 mmHg 72%
03:00 +12°C° 0 mm 9 m/S 752 mmHg 73%
04:00 +12°C° 0 mm 9 m/S 751 mmHg 75%
05:00 +12°C° 0 mm 10 m/S 752 mmHg 77%
06:00 +13°C° 0 mm 10 m/S 752 mmHg 80%
07:00 +13°C° 0 mm 10 m/S 753 mmHg 82%
08:00 +13°C° 0 mm 10 m/S 753 mmHg 80%
09:00 +14°C° 0 mm 10 m/S 754 mmHg 78%
10:00 +16°C° 0 mm 10 m/S 754 mmHg 76%
11:00 +16°C° 0 mm 9 m/S 755 mmHg 75%
12:00 +16°C° 0 mm 8 m/S 755 mmHg 74%
13:00 +17°C° 0 mm 8 m/S 755 mmHg 73%
14:00 +16°C° 0 mm 7 m/S 755 mmHg 74%
15:00 +16°C° 0 mm 6 m/S 755 mmHg 74%
16:00 +16°C° 0 mm 5 m/S 755 mmHg 75%
17:00 +15°C° 0 mm 5 m/S 755 mmHg 78%
18:00 +15°C° 0 mm 5 m/S 755 mmHg 81%
19:00 +14°C° 0 mm 5 m/S 755 mmHg 84%
20:00 +14°C° 0 mm 5 m/S 755 mmHg 83%
21:00 +14°C° 0 mm 6 m/S 755 mmHg 83%
22:00 +14°C° 0 mm 6 m/S 754 mmHg 83%
23:00 +14°C° 0.5 mm 6 m/S 754 mmHg 85%

übermorgen, 23 Oktober, Freitag

Zeit Temperatur Niederschläge Wind Luftdruck Luftfeuchtigkeit
00:00 +14°C° 0.5 mm 7 m/S 754 mmHg 86%
01:00 +14°C° 0.5 mm 7 m/S 754 mmHg 88%
02:00 +14°C° 0.6 mm 7 m/S 753 mmHg 89%
03:00 +14°C° 0.6 mm 7 m/S 753 mmHg 90%
04:00 +14°C° 0.6 mm 7 m/S 753 mmHg 91%
05:00 +14°C° 0.1 mm 7 m/S 753 mmHg 91%
06:00 +13°C° 0.1 mm 6 m/S 753 mmHg 92%
07:00 +13°C° 0.1 mm 6 m/S 753 mmHg 92%
08:00 +13°C° 0 mm 6 m/S 753 mmHg 88%
09:00 +14°C° 0 mm 7 m/S 753 mmHg 83%
10:00 +14°C° 0 mm 7 m/S 753 mmHg 78%
11:00 +15°C° 0 mm 7 m/S 753 mmHg 76%
12:00 +15°C° 0 mm 6 m/S 753 mmHg 73%
13:00 +15°C° 0 mm 6 m/S 753 mmHg 71%
14:00 +14°C° 0 mm 5 m/S 753 mmHg 74%
15:00 +14°C° 0 mm 5 m/S 753 mmHg 77%
16:00 +13°C° 0 mm 4 m/S 753 mmHg 80%
17:00 +13°C° 0 mm 3 m/S 753 mmHg 84%
18:00 +12°C° 0 mm 3 m/S 753 mmHg 87%
19:00 +12°C° 0 mm 3 m/S 753 mmHg 91%
20:00 +11°C° 0 mm 3 m/S 753 mmHg 92%
21:00 +11°C° 0 mm 3 m/S 753 mmHg 93%
22:00 +11°C° 0 mm 4 m/S 753 mmHg 94%
23:00 +11°C° 0 mm 4 m/S 753 mmHg 93%

24 Oktober, Samstag

Zeit Temperatur Niederschläge Wind Luftdruck Luftfeuchtigkeit
00:00 +10°C° 0 mm 5 m/S 752 mmHg 92%
01:00 +10°C° 0 mm 6 m/S 752 mmHg 92%
02:00 +10°C° 0 mm 6 m/S 752 mmHg 91%
03:00 +10°C° 0 mm 7 m/S 752 mmHg 89%
04:00 +10°C° 0 mm 8 m/S 752 mmHg 88%
05:00 +10°C° 0.1 mm 8 m/S 752 mmHg 85%
06:00 +10°C° 0.1 mm 8 m/S 752 mmHg 81%
07:00 +10°C° 0.1 mm 9 m/S 752 mmHg 78%
08:00 +10°C° 0.4 mm 9 m/S 753 mmHg 77%
09:00 +10°C° 0.4 mm 9 m/S 753 mmHg 76%
10:00 +10°C° 0.4 mm 9 m/S 753 mmHg 75%
11:00 +9°C° 0.2 mm 10 m/S 754 mmHg 72%
12:00 +11°C° 0.2 mm 10 m/S 754 mmHg 69%
13:00 +11°C° 0.2 mm 10 m/S 755 mmHg 66%
14:00 +10°C° 0 mm 9 m/S 755 mmHg 68%
15:00 +10°C° 0 mm 8 m/S 756 mmHg 70%
16:00 +10°C° 0 mm 8 m/S 756 mmHg 72%
17:00 +9°C° 0 mm 7 m/S 757 mmHg 75%
18:00 +9°C° 0 mm 6 m/S 757 mmHg 78%
19:00 +8°C° 0 mm 6 m/S 758 mmHg 81%
20:00 +8°C° 0 mm 5 m/S 758 mmHg 82%
21:00 +7°C° 0 mm 5 m/S 758 mmHg 83%
22:00 +7°C° 0 mm 5 m/S 758 mmHg 84%
23:00 +6°C° 0 mm 4 m/S 758 mmHg 85%

25 Oktober, Sonntag

Zeit Temperatur Niederschläge Wind Luftdruck Luftfeuchtigkeit
00:00 +6°C° 0 mm 4 m/S 758 mmHg 86%
01:00 +6°C° 0 mm 4 m/S 758 mmHg 87%
02:00 +6°C° 0 mm 4 m/S 758 mmHg 86%
03:00 +6°C° 0 mm 5 m/S 758 mmHg 85%
04:00 +6°C° 0 mm 5 m/S 757 mmHg 84%
05:00 +6°C° 0 mm 5 m/S 757 mmHg 84%
06:00 +6°C° 0 mm 5 m/S 757 mmHg 84%
07:00 +5°C° 0 mm 6 m/S 757 mmHg 85%
08:00 +8°C° 0 mm 6 m/S 757 mmHg 82%
09:00 +9°C° 0 mm 6 m/S 756 mmHg 79%
10:00 +10°C° 0 mm 6 m/S 756 mmHg 77%
11:00 +11°C° 0 mm 6 m/S 756 mmHg 74%
12:00 +13°C° 0 mm 6 m/S 755 mmHg 71%
13:00 +14°C° 0 mm 6 m/S 755 mmHg 69%
14:00 +14°C° 0 mm 6 m/S 755 mmHg 70%
15:00 +14°C° 0 mm 6 m/S 754 mmHg 72%
16:00 +13°C° 0 mm 5 m/S 754 mmHg 74%
17:00 +13°C° 0 mm 6 m/S 754 mmHg 75%
18:00 +11°C° 0 mm 6 m/S 754 mmHg 77%
19:00 +11°C° 0 mm 6 m/S 754 mmHg 79%
20:00 +11°C° 0 mm 6 m/S 754 mmHg 79%
21:00 +11°C° 0 mm 6 m/S 754 mmHg 79%
22:00 +11°C° 0 mm 6 m/S 753 mmHg 79%
23:00 +11°C° 0 mm 6 m/S 753 mmHg 80%

26 Oktober, Montag

Zeit Temperatur Niederschläge Wind Luftdruck Luftfeuchtigkeit
00:00 +10°C° 0 mm 6 m/S 753 mmHg 81%
01:00 +10°C° 0 mm 6 m/S 753 mmHg 82%
02:00 +10°C° 0 mm 5 m/S 753 mmHg 85%
03:00 +9°C° 0 mm 5 m/S 753 mmHg 88%
04:00 +10°C° 0 mm 4 m/S 753 mmHg 90%
05:00 +10°C° 0 mm 4 m/S 753 mmHg 91%
06:00 +8°C° 0 mm 4 m/S 753 mmHg 92%
07:00 +9°C° 0 mm 3 m/S 753 mmHg 93%
08:00 +10°C° 0 mm 3 m/S 753 mmHg 88%
09:00 +11°C° 0 mm 3 m/S 753 mmHg 83%
10:00 +13°C° 0 mm 2 m/S 753 mmHg 78%
11:00 +14°C° 0 mm 2 m/S 753 mmHg 76%
12:00 +15°C° 0 mm 2 m/S 753 mmHg 74%
13:00 +15°C° 0 mm 2 m/S 753 mmHg 71%
14:00 +15°C° 0 mm 2 m/S 753 mmHg 74%
15:00 +14°C° 0 mm 1 m/S 753 mmHg 76%
16:00 +13°C° 0 mm 1 m/S 753 mmHg 79%
17:00 +13°C° 0 mm 2 m/S 753 mmHg 82%
18:00 +12°C° 0 mm 2 m/S 753 mmHg 85%
19:00 +12°C° 0 mm 2 m/S 753 mmHg 88%
20:00 +11°C° 0.1 mm 3 m/S 753 mmHg 90%
21:00 +11°C° 0.1 mm 3 m/S 753 mmHg 92%
22:00 +11°C° 0.1 mm 3 m/S 754 mmHg 93%
23:00 +11°C° 0.1 mm 3 m/S 754 mmHg 93%

27 Oktober, Dienstag

Zeit Temperatur Niederschläge Wind Luftdruck Luftfeuchtigkeit
00:00 +10°C° 0.1 mm 2 m/S 754 mmHg 92%
01:00 +10°C° 0.1 mm 2 m/S 754 mmHg 91%
02:00 +10°C° 0.1 mm 2 m/S 754 mmHg 92%
03:00 +11°C° 0.1 mm 1 m/S 755 mmHg 92%
04:00 +11°C° 0.1 mm 1 m/S 755 mmHg 92%
05:00 +11°C° 0.1 mm 1 m/S 755 mmHg 93%
06:00 +11°C° 0.1 mm 1 m/S 756 mmHg 93%
07:00 +11°C° 0.1 mm 1 m/S 756 mmHg 93%
08:00 +11°C° 0 mm 1 m/S 756 mmHg 92%
09:00 +10°C° 0 mm 2 m/S 757 mmHg 91%
10:00 +12°C° 0 mm 2 m/S 757 mmHg 90%
11:00 +12°C° 0 mm 2 m/S 757 mmHg 85%
12:00 +13°C° 0 mm 2 m/S 758 mmHg 81%
13:00 +12°C° 0 mm 3 m/S 758 mmHg 77%
14:00 +13°C° 0 mm 2 m/S 758 mmHg 79%
15:00 +12°C° 0 mm 2 m/S 758 mmHg 81%
16:00 +11°C° 0 mm 1 m/S 759 mmHg 83%
17:00 +11°C° 0 mm 1 m/S 759 mmHg 85%
18:00 +10°C° 0 mm 1 m/S 759 mmHg 87%
19:00 +10°C° 0 mm 1 m/S 760 mmHg 88%
20:00 +9°C° 0 mm 1 m/S 760 mmHg 88%
21:00 +9°C° 0 mm 1 m/S 761 mmHg 89%
22:00 +9°C° 0 mm 1 m/S 761 mmHg 89%
23:00 +9°C° 0 mm 1 m/S 761 mmHg 90%
Mehr zeigen

Wir brauchen deine Erlaubnis

Meteoprog und unser Service Anbieter werden persönliche Daten aufbewahren, so wie Cookies, Geräte Bezeichnung oder ähnliche Technologien von deinem Gerät und Prozess, so wie Persönliche Daten Inhalte und Werbungen, genauso wie social Media und den Verkehr zu analysieren.

  • Aufbewahrung und/oder Zugang zu deiner Geräte Informationen.

    Cookies, Geräte Bezeichnung oder andere Informationen, können aufbewahrt oder Zugang zu deinem Gerät erhalten, für den Grund, der oben angegeben wird.

  • Personalisierte Werbung und Inhalte, Messungen, Einblick in das Publikum und Produkt Entwicklung.

    Werbungen und Inhalte können personalisiert werden, basierend auf ein Profil. Mehr Daten können besser personalisierte Werbungen und Inhalte hinzufügen. Werbung und Inhalte können gezeigt und gemessen werden. Einblicke über das Publikum, welche die Werbung gesehen haben und den Inhalt, können abgeleitet werden. So wie Daten können genutzt werden, um es zu verbessern oder die Benutzer Erfahrung zu verbessern das System und die Software.

Wenn du “Ich stimme zu” klickst, erlaubst du uns, die Cookies zu benutzen die Geräte Bezeichnung, den Web oder ähnliche Technologien zu benutzen. Deine Settings, können in deinem Gerät bei deinem Browser geändert werden.

Für den bestimmten Zweck, berechtigten Interessen beruhen darauf, mehr als auf den Inhalt. Du kannst mehr darüber in unseren Privaten und Cookie Politik lesen.